Location: Wald
(31.7579°N, 86.6655°W)
Time: 20:17:59
(UTC+00:00)

Cosmos 1680 Rocket - Pass Details

Date: 14 July 2020
Orbit: 760 x 781 km, 74.1° (Epoch: 13 August)

Event Time Altitude Azimuth Distance (km) Brightness Sun altitude
Exits shadow 02:42:43 - 201° (SSW) 2,829 6.2 -19.9°
Reaches altitude 10° 02:44:02 10° 202° (SSW) 2,322 5.8 -20.1°
Maximum altitude 02:49:18 72° 287° (WNW) 822 3.7 -20.9°
Drops below altitude 10° 02:54:37 10° 12° (NNE) 2,337 6.4 -21.7°
Sets 02:57:01 0° 14° (NNE) 3,268 7.2 -22.1°
